SCP
0 0 0 0 0 0 0 0 0 0 0 0 0 0 0 0 0 0 0 0 0 0 0 0 0 0 0 0 0 0 0 0 0 0 0 0 0 0
0 0 0 0 0 0 0 0 0 0 0 0 0 0 0 0 0 0 0 0 0 0 0 0 0 0 0 0 0 0 0 0 0 0 0 0 0 0
0 0 0 0 0 0 0 0 0 0 0 0 0 0 0 0 0 0 0 0 0 0 0 0 0 0 0 0 0 0 0 0 0 0 0 0 0 0
0 0 0 0 0 0 0 0 0 0 0 0 0 0 0 0 0 0 0 0 0 0 0 0 0 0 0 0 0 0 0 0 0 0 0 0 0 0
0 0 0 0 0 0 0 0 0 0 0 0 0 0 0 0 0 0 0 0 0 0 0 0 0 0 0 0 0 0 0 0 0 0 0 0 0 0
0 0 0 0 0 0 0 0 0 0 0 0 0 0 0 0 0 0 0 0 0 0 0 0 0 0 0 0 0 0 0 0 0 0 0 0 0 0
0 0 0 0 0 0 0 0 0 0 0 0 0 0 0 0 0 0 0 0 0 0 0 0 0 0 0 0 0 0 0 0 0 0 0 0 0 0
0 0 0 0 0 0 0 0 0 0 0 0 0 0 0 0 0 0 0 0 0 0 0 0 0 0 0 0 0 0 0 0 0 0 0 0 0 0
0 0 0 0 0 0 0 0 0 0 0 0 0 0 0 0 0 0 0 0 0 0 0 0 0 0 0 0 0 0 0 0 0 0 0 0 0 0
0 0 0 0 0 0 0 0 0 0 0 0 0 0 0 0 0 0 0 0 0 0 0 0 0 0 0 0 0 0 0 0 0 0 0 0 0 0
0 0 0 0 0 0 0 0 0 0 0 0 0 0 0 0 0 0 0 0 0 0 0 0 0 0 0 0 0 0 0 0 0 0 0 0 0 0
0 0 0 0 0 0 0 0 0 0 0 0 0 0 0 0 0 0 0 0 0 0 0 0 0 0 0 0 0 0 0 0 0 0 0 0 0 0
0 0 0 0 0 0 0 0 0 0 0 0 0 0 0 0 0 0 0 0 0 0 0 0 0 0 0 0 0 0 0 0 0 0 0 0 0 0
0 0 0 0 0 0 0 0 0 0 0 0 0 0 0 0 0 0 0 0 0 0 0 0 0 0 0 0 0 0 0 0 0 0 0 0 0 0
0 0 0 0 0 0 0 0 0 0 0 0 0 0 0 0 0 0 0 0 0 0 0 0 0 0 0 0 0 0 0 0 0 0 0 0 0 0
0 0 0 0 0 0 0 0 0 0 0 0 0 0 0 0 0 0 0 0 0 0 0 0 0 0 0 0 0 0 0 0 0 0 0 0 0 0
0 0 0 0 0 0 0 0 0 0 0 0 0 0 0 0 0 0 0 0 0 0 0 0 0 0 0 0 0 0 0 0 0 0 0 0 0 0
0 0 0 0 0 0 0 0 0 0 0 0 0 0 0 0 0 0 0 0 0 0 0 0 0 0 0 0 0 0 0 0 0 0 0 0 0 0
0 0 0 0 0 0 0 0 0 0 0 0 0 0 0 0 0 0 0 0 0 0 0 0 0 0 0 0 0 0 0 0 0 0 0 0 0 0
0 0 0 0 0 0 0 0 0 0 0 0 0 0 0 0 0 0 0 0 0 0 0 0 0 0 0 0 0 0 0 0 0 0 0 0 0 0
0 0 0 0 0 0 0 0 0 0 0 0 0 0 0 0 0 0 0 0 0 0 0 0 0 0 0 0 0 0 0 0 0 0 0 0 0 -0
0 0 0 0 0 0 0 0 0 0 0 0 0 0 0 0 0 0 0 0 0 0 0 0 0 0 0 0 0 0 0 0 0 0 0 0 0 0
0 0 0 0 0 0 0 0 0 0 0 0 0 0 0 0 0 0 0 0 0 0 0 0 0 0 0 0 0 0 0 0 0 0 0 0 0 0
Wind_Speed
5 3 1 1 1 2 3 4 5 3 3 3 2 2 3 3 8 6 6 10 12 11 9 8 7 6 4 4 4 4 5 5 5 7 9 10 11 11
5 6 4 2 2 0 1 2 3 5 4 4 4 3 3 4 9 7 7 14 13 12 11 9 8 6 5 3 3 4 5 5 6 8 9 10 11 12
5 7 6 5 4 3 1 2 3 3 4 4 2 2 3 4 5 5 5 6 6 12 12 10 8 6 4 2 1 3 4 5 6 8 9 10 11 11
6 7 7 6 4 3 2 2 1 2 4 5 3 2 3 4 5 5 4 5 5 11 14 11 8 6 5 2 2 2 2 3 4 6 8 9 11 12
7 8 8 6 2 1 3 3 2 1 1 4 3 1 0 1 3 3 3 2 3 7 12 11 9 7 5 4 3 1 2 3 3 4 6 8 10 12
9 9 8 5 3 3 4 4 3 3 2 1 2 2 2 2 2 4 3 2 2 3 4 7 9 9 9 9 8 6 4 3 4 5 6 7 9 12
11 9 9 10 10 7 5 5 5 4 3 2 2 2 2 2 2 1 3 3 3 4 3 3 3 4 4 5 5 5 5 5 7 9 10 10 11 13
8 7 8 10 11 12 12 10 9 5 3 2 2 2 3 3 2 2 2 3 3 3 2 2 2 3 3 3 7 12 13 13 12 11 10 11 12 14
6 6 6 7 8 7 8 9 9 11 10 4 4 4 3 4 3 3 3 3 3 2 1 2 2 3 3 5 14 15 14 13 12 12 12 11 11 12
7 7 7 7 7 7 5 7 8 8 8 5 4 3 3 2 3 2 1 3 5 5 4 2 3 3 3 3 12 14 13 13 12 12 12 11 12 13
7 7 6 6 10 10 6 6 7 6 9 13 13 12 10 7 3 2 1 2 3 4 5 2 2 3 2 1 5 12 12 12 13 13 12 12 12 12
5 7 9 7 9 10 5 5 7 5 6 8 11 13 12 13 15 9 4 3 3 3 4 2 1 2 2 2 2 3 5 9 13 13 12 12 12 6
2 3 4 8 9 11 8 6 8 7 6 7 7 7 7 7 8 7 7 5 3 3 2 2 1 2 2 3 3 2 2 3 4 6 9 12 13 10
1 1 3 8 10 10 10 12 13 9 5 6 6 6 6 6 6 6 7 6 4 2 3 2 1 1 1 2 3 3 3 3 3 3 3 10 11 13
1 1 3 9 9 9 13 14 11 7 6 6 6 6 5 5 5 5 6 6 5 4 5 4 3 1 1 2 3 2 3 4 2 2 4 4 4 4
1 4 6 9 8 9 9 8 6 6 6 5 5 4 5 5 5 5 4 4 3 3 5 5 4 3 1 3 4 4 3 3 4 5 4 4 4 4
3 2 3 3 4 4 4 4 4 5 5 4 4 4 5 5 5 5 4 4 3 3 3 3 4 4 4 4 4 4 4 3 3 3 4 6 5 4
6 4 3 3 3 2 2 3 2 3 3 3 3 3 3 2 2 2 2 2 2 2 2 3 3 3 3 3 4 3 3 4 4 6 6 6 6 5
6 3 2 1 1 1 1 1 1 1 1 1 1 0 1 1 2 2 2 2 3 3 3 2 2 3 3 4 5 4 5 6 8 8 6 6 8 9
4 3 2 1 1 1 2 2 2 1 1 1 1 2 1 1 2 2 2 2 3 4 3 1 1 2 3 5 5 6 11 8 6 8 8 8 7 11
3 3 2 2 1 1 2 2 2 2 2 2 2 3 3 2 3 3 3 6 4 3 4 4 4 8 4 3 5 6 5 8 10 9 9 9 10 8
3 3 3 3 2 2 2 2 2 3 3 3 3 3 3 3 4 5 4 4 4 4 5 6 5 4 2 4 7 8 10 9 10 17 17 15 9 7
3 3 3 3 3 3 3 3 4 3 4 4 4 4 4 4 4 4 5 5 5 5 6 6 5 3 4 5 7 8 11 12 9 8 9 15 19 22
Wind_Direction
98 85 101 150 173 176 160 153 153 179 236 262 256 223 180 168 167 153 155 164 155 153 149 142 136 127 107 78 50 27 13 9 12 9 1 357 356 354
106 85 57 30 24 37 191 181 166 166 205 234 231 230 188 183 179 163 169 167 164 162 158 154 150 141 121 87 46 20 9 9 14 11 3 359 358 358
99 94 72 46 21 357 317 186 184 167 195 242 247 242 186 181 173 175 171 160 171 175 170 168 166 157 148 143 15 6 2 3 5 359 354 353 353 354
90 86 74 64 31 346 3 55 125 190 187 212 228 209 203 193 172 175 174 169 172 180 173 174 172 171 175 197 264 312 330 343 346 346 346 346 347 345
74 81 79 88 101 45 46 46 34 38 187 192 202 179 139 115 139 137 132 135 171 170 168 165 163 162 149 125 99 45 299 284 291 307 314 319 329 333
57 65 71 86 103 87 62 37 29 32 36 129 132 106 70 12 104 132 110 78 53 51 112 123 120 105 93 87 81 66 34 346 313 310 310 310 313 320
42 41 45 48 56 66 74 55 37 28 24 49 83 92 71 51 67 92 126 112 61 31 43 56 77 70 54 43 47 43 43 50 54 49 32 10 350 334
38 30 37 34 30 35 48 55 54 46 29 29 40 72 67 36 21 60 108 134 118 38 59 30 37 66 42 32 62 70 69 64 54 42 28 14 5 357
46 36 33 25 35 22 30 52 52 59 58 48 44 42 52 21 20 52 60 78 83 16 47 88 32 54 37 58 75 65 57 47 39 31 21 9 358 345
53 42 34 13 26 31 42 69 66 57 63 65 79 67 57 34 32 40 38 86 88 30 18 80 26 10 9 32 54 51 42 35 27 17 6 357 350 342
47 41 35 9 36 45 47 66 63 43 50 65 72 75 74 74 79 59 50 93 94 40 10 61 27 344 336 349 28 32 26 22 12 358 347 343 339 335
38 18 17 28 53 59 41 51 66 51 53 71 68 60 54 53 53 48 37 65 93 92 10 30 29 359 338 327 347 8 20 10 356 343 338 339 341 344
50 3 343 28 46 50 52 48 68 68 66 78 72 63 54 49 44 41 37 42 62 81 17 6 33 25 358 325 325 334 6 345 330 327 336 340 340 341
77 328 349 46 45 51 60 54 55 57 60 69 67 59 53 49 44 41 35 35 37 37 353 360 25 13 340 306 297 314 323 302 301 309 319 328 331 333
201 168 62 68 59 47 54 55 51 47 56 64 59 49 43 48 41 28 23 19 20 36 34 25 21 341 262 254 273 287 309 298 299 308 306 302 299 310
60 30 49 80 74 66 57 48 43 57 62 57 53 44 40 37 34 21 15 8 18 22 6 9 14 4 295 269 263 266 255 272 295 302 295 286 289 297
119 82 70 71 71 69 67 59 56 56 56 55 52 45 38 28 22 15 11 11 13 356 341 341 334 309 273 254 271 277 277 266 265 298 309 305 288 280
102 89 87 85 85 79 74 66 61 71 61 60 60 46 34 13 357 352 359 359 335 310 312 315 320 324 326 297 253 271 293 299 307 315 310 301 299 298
59 53 52 59 95 124 131 136 141 130 132 114 116 118 327 331 333 330 332 329 316 300 297 300 323 341 343 322 301 300 309 308 307 306 303 297 297 301
32 25 6 339 279 219 207 203 208 220 215 212 215 229 244 260 275 282 285 279 294 297 300 301 297 298 294 306 297 284 289 286 290 297 301 298 288 292
11 4 353 337 311 270 248 234 225 232 237 237 234 235 237 239 253 263 266 292 299 293 295 286 259 298 294 276 277 279 274 279 292 291 293 295 300 296
315 316 316 315 304 279 265 256 248 246 243 239 241 241 240 238 247 256 256 259 260 260 271 276 270 275 250 268 282 284 291 297 292 289 281 275 281 286
265 271 278 286 287 277 262 256 250 249 245 243 245 245 242 242 244 246 249 251 254 263 272 282 283 264 263 269 277 280 284 293 302 299 288 289 287 282